Flag for Jordan Weather past 2 weeks in Zarqa, Jordan

Now
63 °F

Haze.


Feels Like: 63 °F
Forecast: 54 / 73 °F
Wind: 9 mph from West

Location: Amman Airport

Current Time: Apr 2, 2015 at 1:43:10 PM

Latest Report: Apr 2, 2015 at 1:00 PM


Visibility: 3 mi

Pressure: 30.01 "Hg

Humidity: 52%

Dew point: 45 °F

Location of ZarqaLocation

Historic Weather in Zarqa — Graph

°F

Zarqa temperature yesterday

Maximum temperature yesterday: 57 °F (at 1:00 AM)
Minimum temperature yesterday: 50 °F (at 7:00 AM)
Average temperature yesterday: 54 °F

Past Weeks' High & Low Weather Summary

 TemperatureHumidityPressure
High77 °F (Mar 27, 4:00 PM)100% (Apr 1, 9:00 AM)30.15 "Hg (Apr 1, 9:00 AM)
Low39 °F (Mar 23, 5:00 AM)13% (Mar 24, 10:00 AM)29.83 "Hg (Mar 29, 2:00 PM)
Average57 °F55%30.01 "Hg
* Reported Mar 18 11:00 AM — Apr 2 12:00 Noon, Zarqa, Weather by CustomWeather, © 2015

Note: Actual official high and low records may vary slightly from our data, if they occured in-between our weather recording intervals... More about our weather records

Advertising

Zarqa weather history for previous 24 hours

 ConditionsComfort  
Time TempWeatherWind HumidityBarometerVisibility
12:00 PM
Thu, Apr 2
63 °FHaze.5 mph49%30.04 "Hg3 mi
11:00 AM59 °FHaze.No wind63%30.04 "Hg3 mi
10:00 AM55 °FHaze.6 mph72%30.04 "Hg3 mi
9:00 AM55 °FScattered clouds.6 mph72%30.04 "Hg3 mi
8:00 AM52 °FFog.No wind82%30.01 "Hg2 mi
7:00 AM50 °FFog.6 mph88%30.01 "Hg2 mi
6:00 AM50 °FPassing clouds.6 mph94%30.01 "Hg2 mi
5:00 AM50 °FHaze.5 mph88%30.01 "Hg2 mi
3:00 AM48 °FHaze.7 mph87%30.01 "Hg2 mi
2:00 AM50 °FHaze.5 mph82%30.04 "Hg2 mi
1:00 AM50 °FHaze.5 mph88%30.04 "Hg2 mi
12:00 AM52 °FHaze.5 mph82%30.04 "Hg2 mi
11:00 PM
Wed, Apr 1
52 °FPassing clouds.5 mph82%30.04 "Hg2 mi
10:00 PM54 °FPassing clouds.10 mph77%30.04 "Hg2 mi
9:00 PM55 °FPassing clouds.No wind77%30.01 "Hg2 mi
8:00 PM55 °FPartly cloudy.12 mph82%30.01 "Hg2 mi
7:00 PM55 °FBroken clouds.12 mph82%30.01 "Hg3 mi
6:00 PM55 °FScattered clouds.14 mph82%30.01 "Hg3 mi
5:00 PM55 °FScattered clouds.15 mph82%30.01 "Hg3 mi
4:00 PM57 °FBroken clouds.14 mph77%29.98 "Hg3 mi
3:00 PM57 °FBroken clouds.14 mph77%29.98 "Hg3 mi
1:00 PM54 °FRain. Scattered clouds.13 mph88%29.98 "Hg2 mi
Weather by CustomWeather, © 2015

See weather overviewHow to use our weather pages